TimeCST,TemperatureF,Dew PointF,Humidity,Sea Level PressureIn,VisibilityMPH,Wind Direction,Wind SpeedMPH,Gust SpeedMPH,PrecipitationIn,Events,Conditions,WindDirDegrees,DateUTC
12:56 AM,39.9,37.9,93,30.18,10.0,Calm,Calm,-,N/A,,Clear,0,2012-11-09 06:56:00
1:56 AM,39.9,37.0,89,30.18,10.0,Calm,Calm,-,N/A,,Clear,0,2012-11-09 07:56:00
2:56 AM,39.0,37.0,93,30.18,10.0,NNE,3.5,-,N/A,,Clear,20,2012-11-09 08:56:00
3:56 AM,36.0,34.0,93,30.19,10.0,NNE,3.5,-,N/A,,Clear,30,2012-11-09 09:56:00
4:56 AM,36.0,33.1,89,30.21,10.0,NNE,3.5,-,N/A,,Clear,30,2012-11-09 10:56:00
5:56 AM,35.1,32.0,89,30.23,9.0,Calm,Calm,-,N/A,,Clear,0,2012-11-09 11:56:00
6:56 AM,36.0,34.0,93,30.26,10.0,Calm,Calm,-,N/A,,Clear,0,2012-11-09 12:56:00
7:56 AM,52.0,43.0,71,30.26,10.0,ENE,3.5,-,N/A,,Clear,60,2012-11-09 13:56:00
8:56 AM,57.0,43.0,59,30.27,10.0,East,3.5,-,N/A,,Clear,80,2012-11-09 14:56:00
9:56 AM,64.0,43.0,46,30.27,10.0,Variable,3.5,-,N/A,,Clear,0,2012-11-09 15:56:00
10:56 AM,66.9,44.1,44,30.26,10.0,Variable,3.5,-,N/A,,Clear,0,2012-11-09 16:56:00
11:56 AM,69.1,41.0,36,30.23,10.0,Calm,Calm,-,N/A,,Clear,0,2012-11-09 17:56:00
12:56 PM,70.0,39.0,32,30.20,10.0,Variable,3.5,-,N/A,,Clear,0,2012-11-09 18:56:00
1:56 PM,71.1,39.0,31,30.18,10.0,East,5.8,-,N/A,,Clear,90,2012-11-09 19:56:00
2:56 PM,70.0,39.9,33,30.17,10.0,SSW,3.5,-,N/A,,Clear,210,2012-11-09 20:56:00
3:56 PM,66.0,48.9,54,30.18,10.0,South,8.1,-,N/A,,Clear,190,2012-11-09 21:56:00
4:56 PM,61.0,48.9,64,30.19,10.0,South,5.8,-,N/A,,Clear,180,2012-11-09 22:56:00
5:56 PM,57.9,48.9,72,30.20,10.0,South,3.5,-,N/A,,Clear,180,2012-11-09 23:56:00
6:56 PM,57.0,50.0,77,30.21,10.0,Calm,Calm,-,N/A,,Clear,0,2012-11-10 00:56:00
7:56 PM,52.0,48.9,89,30.21,10.0,Calm,Calm,-,N/A,,Clear,0,2012-11-10 01:56:00
8:56 PM,52.0,48.0,86,30.22,10.0,Calm,Calm,-,N/A,,Clear,0,2012-11-10 02:56:00
9:56 PM,50.0,46.0,86,30.22,10.0,Calm,Calm,-,N/A,,Clear,0,2012-11-10 03:56:00
10:56 PM,46.0,43.0,89,30.21,10.0,NE,3.5,-,N/A,,Clear,50,2012-11-10 04:56:00
11:56 PM,48.9,44.1,83,30.21,10.0,ENE,3.5,-,N/A,,Clear,60,2012-11-10 05:56:00